Gainesville, GA

11:43 PM EDT on October 23, 2019 (GMT -0400)
Gilmer Memorial

Weather History for KGVL - August, 2019

Change the Weather History Date:

Sunday, August 11, 2019

  Actual Average Record
Temperature  
Mean Temperature 83 °F 79 °F  
Max Temperature 91 °F 88 °F 98 °F (1957)
Min Temperature 74 °F 70 °F 57 °F (1953)
Cooling Degree Days 18 14  
Month to date cooling degree days 163 154  
Year to date cooling degree days 1236 1076  
Since 1 June cooling degree days 900 901  
Growing Degree Days 33 (Base 50)    
Moisture  
Dew Point 72 °F    
Average Humidity 73    
Maximum Humidity 94    
Minimum Humidity 52    
Precipitation  
Precipitation 0.00 in 0.15 in 1.16 in (1996)
Month to date precipitation 1.38 1.82  
Year to date precipitation 36.22 33.64  
Sea Level Pressure  
Sea Level Pressure 29.97 in    
Wind  
Wind Speed 6 mph (ENE)    
Max Wind Speed 14 mph    
Max Gust Speed 17 mph    
Visibility 10 miles    
Events      
T = Trace of Precipitation, MM = Missing Value Source: NWS Daily Summary

Daily Weather History Graph

Daily Weather History Graph

Search for Another Location

Airport or City:

Astronomy

Aug. 11, 2019 Rise Set
Actual Time 6:53 AM EDT 8:27 PM EDT
Civil Twilight 6:26 AM EDT 8:53 PM EDT
Nautical Twilight 5:54 AM EDT 9:26 PM EDT
Astronomical Twilight 5:20 AM EDT 9:59 PM EDT
Moon 5:59 PM EDT (8/11) 3:18 AM EDT (8/11)
Length of Visible Light 14h 27m
Length of Day
13h 33m
Waxing Gibbous, 87% of the Moon is Illuminated
Aug 11
Waxing Gibbous
Aug 15
Full
Aug 23
Last Quarter
Aug 30
New
Sep 5
First Quarter

Hourly Weather History & Observations

Time (EDT) Temp. Heat Index Dew Point Humidity Pressure Visibility Wind Dir Wind Speed Gust Speed Precip Events Conditions
12:53 AM 79.0 °F - 75.0 °F 88% 29.93 in 10.0 mi NNW 3.5 mph - N/A   Clear
1:53 AM 78.1 °F - 73.9 °F 87% 29.94 in 10.0 mi NNE 4.6 mph - N/A   Clear
2:53 AM 77.0 °F - 73.9 °F 90% 29.93 in 10.0 mi NE 4.6 mph - N/A   Clear
3:53 AM 75.9 °F - 73.9 °F 94% 29.92 in 10.0 mi NE 5.8 mph - N/A   Clear
4:53 AM 75.0 °F - 73.0 °F 94% 29.93 in 10.0 mi NNE 5.8 mph - N/A   Clear
5:53 AM 75.0 °F - 72.0 °F 90% 29.93 in 10.0 mi NNE 6.9 mph - N/A   Clear
6:53 AM 75.0 °F - 72.0 °F 90% 29.95 in 10.0 mi NE 4.6 mph - N/A   Clear
7:53 AM 77.0 °F - 71.1 °F 82% 29.98 in 10.0 mi ENE 4.6 mph - N/A   Clear
8:53 AM 79.0 °F - 72.0 °F 79% 29.99 in 10.0 mi East 8.1 mph - N/A   Clear
9:53 AM 81.0 °F 85.2 °F 72.0 °F 74% 30.01 in 10.0 mi East 8.1 mph - N/A   Clear
10:53 AM 84.0 °F 90.2 °F 73.0 °F 69% 30.01 in 10.0 mi East 10.4 mph - N/A   Clear
11:53 AM 84.9 °F 92.1 °F 73.9 °F 69% 30.03 in 10.0 mi East 6.9 mph - N/A   Mostly Cloudy
12:53 PM 86.0 °F 93.8 °F 73.9 °F 67% 30.01 in 10.0 mi East 4.6 mph - N/A   Partly Cloudy
1:53 PM 88.0 °F 95.6 °F 73.0 °F 61% 30.00 in 10.0 mi ENE 8.1 mph - N/A   Scattered Clouds
2:53 PM 88.0 °F 94.7 °F 72.0 °F 59% 29.98 in 10.0 mi East 6.9 mph - N/A   Mostly Cloudy
3:53 PM 91.0 °F 97.6 °F 71.1 °F 52% 29.97 in 10.0 mi East 8.1 mph - N/A   Partly Cloudy
4:53 PM 90.0 °F 96.4 °F 71.1 °F 54% 29.95 in 10.0 mi ESE 4.6 mph - N/A   Clear
5:53 PM 89.1 °F 94.1 °F 70.0 °F 53% 29.95 in 10.0 mi ENE 5.8 mph - N/A   Clear
6:53 PM 88.0 °F 92.9 °F 70.0 °F 55% 29.95 in 10.0 mi East 6.9 mph - N/A   Clear
7:53 PM 87.1 °F 92.8 °F 71.1 °F 59% 29.95 in 10.0 mi ENE 5.8 mph - N/A   Clear
8:53 PM 84.0 °F 89.6 °F 72.0 °F 67% 29.96 in 10.0 mi ESE 3.5 mph - N/A   Clear
9:53 PM 82.9 °F 88.0 °F 72.0 °F 69% 29.97 in 10.0 mi ENE 5.8 mph - N/A   Clear
10:53 PM 81.0 °F 85.8 °F 73.0 °F 77% 29.99 in 10.0 mi East 5.8 mph - N/A   Mostly Cloudy
11:53 PM 81.0 °F 85.2 °F 72.0 °F 74% 29.99 in 10.0 mi ENE 5.8 mph - N/A   Clear